,,,PA_Meas_PMT16A,,PR_Meas_QMR101_102,,RH_Meas_QMH101,,SR_Meas_QMS101,,TA_Meas_QMH101,,GenWind,,GenWind,
date,time,status,PA,status,PR,status,RH,status,SR,status,TA,status,DirAvg,status,SpdAvg,
2010-02-12, 00:00:05,VALID,1006.7,VALID,0,VALID,94.1633,VALID,0,VALID,23.2736,VALID,32,VALID,0.717969,
2010-02-12, 00:01:05,VALID,1006.71,VALID,0,VALID,94.0336,VALID,0,VALID,23.2541,VALID,32,VALID,0.499219,
2010-02-12, 00:02:05,VALID,1006.68,VALID,0,VALID,93.8581,VALID,0,VALID,23.2754,VALID,22,VALID,0.592578,
2010-02-12, 00:03:05,VALID,1006.68,VALID,0,VALID,94.0031,VALID,0,VALID,23.332,VALID,54,VALID,0.371094,
2010-02-12, 00:04:05,VALID,1006.67,VALID,0,VALID,93.9573,VALID,0,VALID,23.3727,VALID,46,VALID,0.471875,
2010-02-12, 00:05:05,VALID,1006.65,VALID,0,VALID,93.9115,VALID,0,VALID,23.4311,VALID,38,VALID,0.546094,
2010-02-12, 00:06:05,VALID,1006.63,VALID,0,VALID,93.8352,VALID,0,VALID,23.4311,VALID,38,VALID,0.357422,
2010-02-12, 00:07:05,VALID,1006.6,VALID,0,VALID,93.6598,VALID,0,VALID,23.3904,VALID,38,VALID,0.259375,
2010-02-12, 00:08:05,VALID,1006.58,VALID,0,VALID,93.5453,VALID,0,VALID,23.3709,VALID,38,VALID,0.221484,
2010-02-12, 00:09:05,VALID,1006.56,VALID,0,VALID,93.469,VALID,0,VALID,23.3727,VALID,38,VALID,0.1125,
2010-02-12, 00:10:05,VALID,1006.54,VALID,0,VALID,93.408,VALID,0,VALID,23.3532,VALID,38,VALID,0.264844,
2010-02-12, 00:11:05,VALID,1006.51,VALID,0,VALID,93.3775,VALID,0,VALID,23.3337,VALID,38,VALID,0.183594,
2010-02-12, 00:12:05,VALID,1006.48,VALID,0,VALID,93.4156,VALID,0,VALID,23.3143,VALID,35,VALID,0.0449219,
2010-02-12, 00:13:05,VALID,1006.49,VALID,0,VALID,93.4156,VALID,0,VALID,23.2754,VALID,35,VALID,0.462109,
2010-02-12, 00:14:05,VALID,1006.45,VALID,0,VALID,93.553,VALID,0,VALID,23.2948,VALID,34,VALID,0.233984,
2010-02-12, 00:15:05,VALID,1006.46,VALID,0,VALID,93.6826,VALID,0,VALID,23.2948,VALID,34,VALID,0.35625,
2010-02-12, 00:16:05,VALID,1006.43,VALID,0,VALID,93.7971,VALID,0,VALID,23.3125,VALID,28,VALID,0.30625,
2010-02-12, 00:17:05,VALID,1006.45,VALID,0,VALID,93.881,VALID,0,VALID,23.3532,VALID,28,VALID,0.299609,
2010-02-12, 00:18:05,VALID,1006.43,VALID,0,VALID,94.0641,VALID,0,VALID,23.4505,VALID,37,VALID,0.438672,
2010-02-12, 00:19:05,VALID,1006.43,VALID,0,VALID,94.0641,VALID,0,VALID,23.4505,VALID,40,VALID,0.434375,
2010-02-12, 00:20:05,VALID,1006.42,VALID,0,VALID,93.8963,VALID,0,VALID,23.4505,VALID,65,VALID,0.124219,
2010-02-12, 00:21:05,VALID,1006.4,VALID,0,VALID,93.7437,VALID,0,VALID,23.4116,VALID,65,VALID,0.371094,
2010-02-12, 00:22:05,VALID,1006.38,VALID,0,VALID,93.5911,VALID,0,VALID,23.3921,VALID,65,VALID,0.125,
2010-02-12, 00:23:05,VALID,1006.41,VALID,0,VALID,93.4843,VALID,0,VALID,23.3744,VALID,65,VALID,0.335547,
2010-02-12, 00:24:05,VALID,1006.38,VALID,0,VALID,93.6369,VALID,0,VALID,23.3904,VALID,7,VALID,0.641797,
2010-02-12, 00:25:05,VALID,1006.37,VALID,0,VALID,93.8276,VALID,0,VALID,23.4894,VALID,88,VALID,0.403125,
2010-02-12, 00:26:05,VALID,1006.37,VALID,0,VALID,93.7742,VALID,0,VALID,23.47,VALID,88,VALID,0.025,
2010-02-12, 00:27:05,VALID,1006.38,VALID,0,VALID,93.553,VALID,0,VALID,23.4116,VALID,88,VALID,0.214453,
2010-02-12, 00:28:05,VALID,1006.33,VALID,0,VALID,93.3622,VALID,0,VALID,23.4116,VALID,88,VALID,0.399609,
2010-02-12, 00:29:05,VALID,1006.32,VALID,0,VALID,93.3699,VALID,0,VALID,23.3904,VALID,73,VALID,0.337109,
2010-02-12, 00:30:05,VALID,1006.33,VALID,0,VALID,93.4004,VALID,0,VALID,23.3904,VALID,73,VALID,0.132813,
2010-02-12, 00:31:05,VALID,1006.3,VALID,0,VALID,93.5301,VALID,0,VALID,23.4505,VALID,11,VALID,0.739453,
2010-02-12, 00:32:05,VALID,1006.3,VALID,0,VALID,93.8505,VALID,0,VALID,23.5673,VALID,19,VALID,0.411328,
2010-02-12, 00:33:05,VALID,1006.29,VALID,0,VALID,93.7437,VALID,0,VALID,23.5655,VALID,28,VALID,0.221484,
2010-02-12, 00:34:05,VALID,1006.25,VALID,0,VALID,93.408,VALID,0,VALID,23.546,VALID,28,VALID,0.285937,
2010-02-12, 00:35:05,VALID,1006.23,VALID,0,VALID,93.0647,VALID,0,VALID,23.5284,VALID,28,VALID,0.222266,
2010-02-12, 00:36:05,VALID,1006.21,VALID,0,VALID,92.9198,VALID,0,VALID,23.4877,VALID,28,VALID,0,
2010-02-12, 00:37:05,VALID,1006.18,VALID,0,VALID,92.9884,VALID,0,VALID,23.4487,VALID,28,VALID,0.0957031,
2010-02-12, 00:38:05,VALID,1006.18,VALID,0,VALID,92.9808,VALID,0,VALID,23.47,VALID,28,VALID,0.0136719,
2010-02-12, 00:39:05,VALID,1006.18,VALID,0,VALID,92.9426,VALID,0,VALID,23.4098,VALID,28,VALID,0.375,
2010-02-12, 00:40:05,VALID,1006.16,VALID,0,VALID,92.7519,VALID,0,VALID,23.3125,VALID,28,VALID,0.212109,
2010-02-12, 00:41:05,VALID,1006.14,VALID,0,VALID,93.0189,VALID,0,VALID,23.3727,VALID,42,VALID,0.429297,
2010-02-12, 00:42:05,VALID,1006.12,VALID,0,VALID,93.0495,VALID,0,VALID,23.332,VALID,45,VALID,0.0679687,
2010-02-12, 00:43:05,VALID,1006.13,VALID,0,VALID,92.935,VALID,0,VALID,23.2736,VALID,45,VALID,0.225781,
2010-02-12, 00:44:05,VALID,1006.1,VALID,0,VALID,92.9426,VALID,0,VALID,23.2754,VALID,45,VALID,0.258594,
2010-02-12, 00:45:05,VALID,1006.1,VALID,0,VALID,93.0723,VALID,0,VALID,23.2347,VALID,66,VALID,0.820313,
2010-02-12, 00:46:05,VALID,1006.07,VALID,0,VALID,93.408,VALID,0,VALID,23.316,VALID,60,VALID,0.415625,
2010-02-12, 00:47:05,VALID,1006.08,VALID,0,VALID,93.5301,VALID,0,VALID,23.2541,VALID,60,VALID,0.271875,
2010-02-12, 00:48:05,VALID,1006.08,VALID,0,VALID,93.675,VALID,0,VALID,23.2541,VALID,60,VALID,0.375391,
2010-02-12, 00:49:05,VALID,1006.03,VALID,0,VALID,93.6674,VALID,0,VALID,23.2152,VALID,60,VALID,0.40625,
2010-02-12, 00:50:05,VALID,1006.02,VALID,0,VALID,93.6445,VALID,0,VALID,23.1763,VALID,60,VALID,0,
2010-02-12, 00:51:05,VALID,1006.04,VALID,0,VALID,93.6903,VALID,0,VALID,23.1568,VALID,60,VALID,0.244141,
2010-02-12, 00:52:05,VALID,1006.03,VALID,0,VALID,93.7208,VALID,0,VALID,23.1391,VALID,60,VALID,0.126953,
2010-02-12, 00:53:05,VALID,1006.03,VALID,0,VALID,93.6674,VALID,0,VALID,23.1002,VALID,60,VALID,0,
2010-02-12, 00:54:05,VALID,1006.01,VALID,0,VALID,93.7742,VALID,0,VALID,23.0984,VALID,60,VALID,0,
2010-02-12, 00:55:05,VALID,1006.03,VALID,0,VALID,93.8886,VALID,0,VALID,23.1391,VALID,60,VALID,0,
2010-02-12, 00:56:05,VALID,1006,VALID,0,VALID,93.9649,VALID,0,VALID,23.1391,VALID,59,VALID,0.445313,
2010-02-12, 00:57:05,VALID,1006.02,VALID,0,VALID,93.9725,VALID,0,VALID,23.0984,VALID,59,VALID,0.103125,
2010-02-12, 00:58:05,VALID,1006,VALID,0,VALID,94.0107,VALID,0,VALID,23.0807,VALID,59,VALID,0.314063,
2010-02-12, 00:59:05,VALID,1006,VALID,0,VALID,93.9954,VALID,0,VALID,23.0401,VALID,59,VALID,0,
2010-02-12, 01:00:05,VALID,1006.03,VALID,0,VALID,94.0259,VALID,0,VALID,23.0613,VALID,59,VALID,0,
2010-02-12, 01:01:05,VALID,1006.01,VALID,0,VALID,94.1251,VALID,0,VALID,23.0613,VALID,59,VALID,0,
2010-02-12, 01:02:05,VALID,1006.01,VALID,0,VALID,94.2319,VALID,0,VALID,23.0984,VALID,59,VALID,0,
2010-02-12, 01:03:05,VALID,1006.04,VALID,0,VALID,94.2853,VALID,0,VALID,23.079,VALID,59,VALID,0,
2010-02-12, 01:04:05,VALID,1005.99,VALID,0,VALID,94.3082,VALID,0,VALID,23.079,VALID,59,VALID,0,
2010-02-12, 01:05:05,VALID,1005.97,VALID,0,VALID,94.3998,VALID,0,VALID,23.1179,VALID,59,VALID,0,
2010-02-12, 01:06:05,VALID,1006,VALID,0,VALID,94.4913,VALID,0,VALID,23.1975,VALID,59,VALID,0,
2010-02-12, 01:07:05,VALID,1005.97,VALID,0,VALID,94.6057,VALID,0,VALID,23.2134,VALID,47,VALID,0,
2010-02-12, 01:08:05,VALID,1005.97,VALID,0,VALID,94.621,VALID,0,VALID,23.2152,VALID,47,VALID,0,
2010-02-12, 01:09:05,VALID,1005.97,VALID,0,VALID,94.5829,VALID,0,VALID,23.2152,VALID,47,VALID,0,
2010-02-12, 01:10:05,VALID,1005.96,VALID,0,VALID,94.5142,VALID,0,VALID,23.2152,VALID,47,VALID,0,
2010-02-12, 01:11:05,VALID,1005.93,VALID,0,VALID,94.4837,VALID,0,VALID,23.2364,VALID,47,VALID,0,
2010-02-12, 01:12:05,VALID,1005.96,VALID,0,VALID,94.3845,VALID,0,VALID,23.1975,VALID,47,VALID,0,
2010-02-12, 01:13:05,VALID,1005.93,VALID,0,VALID,94.3235,VALID,0,VALID,23.178,VALID,47,VALID,0,
2010-02-12, 01:14:05,VALID,1005.92,VALID,0,VALID,94.3006,VALID,0,VALID,23.178,VALID,47,VALID,0,
2010-02-12, 01:15:05,VALID,1005.93,VALID,0,VALID,94.293,VALID,0,VALID,23.178,VALID,47,VALID,0,
2010-02-12, 01:16:05,VALID,1005.9,VALID,0,VALID,94.2853,VALID,0,VALID,23.1374,VALID,47,VALID,0,
2010-02-12, 01:17:05,VALID,1005.88,VALID,0,VALID,94.2548,VALID,0,VALID,23.1179,VALID,47,VALID,0,
2010-02-12, 01:18:05,VALID,1005.87,VALID,0,VALID,94.148,VALID,0,VALID,23.0595,VALID,47,VALID,0.00742187,
2010-02-12, 01:19:05,VALID,1005.84,VALID,0,VALID,94.0031,VALID,0,VALID,23.0224,VALID,47,VALID,0.514844,
2010-02-12, 01:20:05,VALID,1005.87,VALID,0,VALID,93.9344,VALID,0,VALID,22.9834,VALID,29,VALID,0.269922,
2010-02-12, 01:21:05,VALID,1005.81,VALID,0,VALID,94.0183,VALID,0,VALID,22.9834,VALID,29,VALID,0.568359,
2010-02-12, 01:22:05,VALID,1005.82,VALID,0,VALID,94.1633,VALID,0,VALID,23.0012,VALID,17,VALID,0.717969,
2010-02-12, 01:23:05,VALID,1005.84,VALID,0,VALID,94.3998,VALID,0,VALID,23.1197,VALID,19,VALID,0.691016,
2010-02-12, 01:24:05,VALID,1005.81,VALID,0,VALID,94.4761,VALID,0,VALID,23.1179,VALID,19,VALID,0.438672,
2010-02-12, 01:25:05,VALID,1005.8,VALID,0,VALID,94.5218,VALID,0,VALID,23.1975,VALID,7,VALID,0.378516,
2010-02-12, 01:26:05,VALID,1005.77,VALID,0,VALID,94.4379,VALID,0,VALID,23.178,VALID,7,VALID,0.367969,
2010-02-12, 01:27:05,VALID,1005.72,VALID,0,VALID,94.1556,VALID,0,VALID,23.1197,VALID,8,VALID,0.3,
2010-02-12, 01:28:05,VALID,1005.74,VALID,0,VALID,93.9573,VALID,0,VALID,23.0807,VALID,15,VALID,0.571875,
2010-02-12, 01:29:05,VALID,1005.73,VALID,0,VALID,93.8734,VALID,0,VALID,23.0189,VALID,22,VALID,0.562891,
2010-02-12, 01:30:05,VALID,1005.73,VALID,0,VALID,93.7284,VALID,0,VALID,22.9622,VALID,22,VALID,0.351563,
2010-02-12, 01:31:05,VALID,1005.69,VALID,0,VALID,93.7971,VALID,0,VALID,22.9817,VALID,58,VALID,0.548828,
2010-02-12, 01:32:05,VALID,1005.66,VALID,0,VALID,93.8352,VALID,0,VALID,22.9622,VALID,53,VALID,0.453906,
2010-02-12, 01:33:05,VALID,1005.66,VALID,0,VALID,93.82,VALID,0,VALID,22.9039,VALID,51,VALID,0.474609,
2010-02-12, 01:34:05,VALID,1005.63,VALID,0,VALID,93.9649,VALID,0,VALID,22.9428,VALID,10,VALID,0.489844,
2010-02-12, 01:35:05,VALID,1005.59,VALID,0,VALID,94.1022,VALID,0.100563,VALID,22.9428,VALID,14,VALID,0.823828,
2010-02-12, 01:36:05,VALID,1005.61,VALID,0,VALID,94.3235,VALID,0.100563,VALID,23.0772,VALID,22,VALID,0.899609,
2010-02-12, 01:37:05,VALID,1005.57,VALID,0,VALID,94.5142,VALID,0,VALID,23.1957,VALID,46,VALID,0.655469,
2010-02-12, 01:38:05,VALID,1005.56,VALID,0,VALID,94.5905,VALID,0.100563,VALID,23.3107,VALID,20,VALID,0.667969,
2010-02-12, 01:39:05,VALID,1005.54,VALID,0,VALID,94.4455,VALID,0,VALID,23.332,VALID,20,VALID,0.560547,
2010-02-12, 01:40:05,VALID,1005.53,VALID,0,VALID,94.3311,VALID,0.100563,VALID,23.4275,VALID,33,VALID,0.846094,
2010-02-12, 01:41:05,VALID,1005.49,VALID,0,VALID,93.8886,VALID,0,VALID,23.408,VALID,22,VALID,1.13984,
2010-02-12, 01:42:05,VALID,1005.47,VALID,0,VALID,93.881,VALID,0.100563,VALID,23.546,VALID,22,VALID,0.827344,
2010-02-12, 01:43:05,VALID,1005.46,VALID,0,VALID,93.5911,VALID,0,VALID,23.5655,VALID,20,VALID,0.466797,
2010-02-12, 01:44:05,VALID,1005.42,VALID,0,VALID,93.141,VALID,0,VALID,23.5053,VALID,21,VALID,0.45625,
2010-02-12, 01:45:05,VALID,1005.41,VALID,0,VALID,92.935,VALID,0,VALID,23.5478,VALID,16,VALID,0.703516,
2010-02-12, 01:46:05,VALID,1005.35,VALID,0,VALID,92.8664,VALID,0,VALID,23.5868,VALID,15,VALID,1.09258,
2010-02-12, 01:47:05,VALID,1005.36,VALID,0,VALID,93.1868,VALID,0,VALID,23.7212,VALID,11,VALID,1.24805,
2010-02-12, 01:48:05,VALID,1005.33,VALID,0,VALID,92.5917,VALID,0,VALID,23.7796,VALID,16,VALID,1.15508,
2010-02-12, 01:49:05,VALID,1005.32,VALID,0,VALID,92.5231,VALID,0,VALID,23.9937,VALID,17,VALID,1.23867,
2010-02-12, 01:50:05,VALID,1005.29,VALID,0,VALID,91.2185,VALID,0,VALID,24.0539,VALID,12,VALID,0.876172,
2010-02-12, 01:51:05,VALID,1005.28,VALID,0,VALID,91.1804,VALID,0,VALID,24.13,VALID,23,VALID,1.31133,
2010-02-12, 01:52:05,VALID,1005.26,VALID,0,VALID,90.5396,VALID,0,VALID,24.1707,VALID,27,VALID,1.33555,
2010-02-12, 01:53:05,VALID,1005.25,VALID,0,VALID,89.8682,VALID,0,VALID,24.2468,VALID,20,VALID,1.08555,
2010-02-12, 01:54:05,VALID,1005.2,VALID,0,VALID,89.3037,VALID,0,VALID,24.2468,VALID,20,VALID,0.934375,
2010-02-12, 01:55:05,VALID,1005.22,VALID,0,VALID,89.6241,VALID,0,VALID,24.2486,VALID,31,VALID,0.780469,
2010-02-12, 01:56:05,VALID,1005.23,VALID,0,VALID,89.7233,VALID,0,VALID,24.2857,VALID,28,VALID,0.817578,
2010-02-12, 01:57:05,VALID,1005.21,VALID,0,VALID,89.5097,VALID,0,VALID,24.4238,VALID,29,VALID,0.865234,
2010-02-12, 01:58:05,VALID,1005.21,VALID,0,VALID,88.9985,VALID,0,VALID,24.4414,VALID,4,VALID,1.18008,
2010-02-12, 01:59:05,VALID,1005.22,VALID,0,VALID,88.6476,VALID,0,VALID,24.5777,VALID,23,VALID,1.02734,
2010-02-12, 02:00:05,VALID,1005.2,VALID,0,VALID,87.816,VALID,0,VALID,24.6166,VALID,33,VALID,0.774609,
2010-02-12, 02:01:05,VALID,1005.19,VALID,0,VALID,87.9839,VALID,0,VALID,24.5388,VALID,23,VALID,1.17695,
2010-02-12, 02:02:05,VALID,1005.18,VALID,0,VALID,88.2051,VALID,0,VALID,24.5582,VALID,12,VALID,0.849609,
2010-02-12, 02:03:05,VALID,1005.13,VALID,0,VALID,87.9686,VALID,0,VALID,24.5388,VALID,14,VALID,0.882813,
2010-02-12, 02:04:05,VALID,1005.14,VALID,0,VALID,88.1899,VALID,0,VALID,24.5388,VALID,41,VALID,1.06758,
2010-02-12, 02:05:05,VALID,1005.13,VALID,0,VALID,87.9839,VALID,0,VALID,24.5582,VALID,13,VALID,0.517578,
2010-02-12, 02:06:05,VALID,1005.13,VALID,0,VALID,87.9534,VALID,0,VALID,24.5388,VALID,15,VALID,0.633984,
2010-02-12, 02:07:05,VALID,1005.08,VALID,0,VALID,88.0831,VALID,0,VALID,24.5193,VALID,24,VALID,0.60625,
2010-02-12, 02:08:05,VALID,1005.08,VALID,0,VALID,88.0525,VALID,0,VALID,24.5388,VALID,17,VALID,0.683984,
2010-02-12, 02:09:05,VALID,1005.09,VALID,0,VALID,88.1899,VALID,0,VALID,24.5388,VALID,19,VALID,0.678906,
2010-02-12, 02:10:05,VALID,1005.07,VALID,0,VALID,87.9,VALID,0,VALID,24.5601,VALID,18,VALID,0.857813,
2010-02-12, 02:11:04,VALID,1005.07,VALID,0,VALID,87.9,VALID,0,VALID,24.5796,VALID,29,VALID,0.700391,
2010-02-12, 02:12:04,VALID,1005.03,VALID,0,VALID,87.9,VALID,0.100563,VALID,24.5388,VALID,9,VALID,0.975391,
2010-02-12, 02:13:04,VALID,1005.05,VALID,0,VALID,87.8847,VALID,0,VALID,24.5582,VALID,22,VALID,0.969141,
2010-02-12, 02:14:04,VALID,1005.07,VALID,0,VALID,87.8313,VALID,0,VALID,24.5369,VALID,18,VALID,1.12969,
2010-02-12, 02:15:04,VALID,1005.07,VALID,0,VALID,88.0754,VALID,0,VALID,24.5369,VALID,13,VALID,1.86523,
2010-02-12, 02:16:04,VALID,1005.06,VALID,0,VALID,87.6024,VALID,0,VALID,24.675,VALID,14,VALID,1.00469,
2010-02-12, 02:17:04,VALID,1005.08,VALID,0,VALID,87.2515,VALID,0,VALID,24.6556,VALID,29,VALID,0.621875,
2010-02-12, 02:18:04,VALID,1005.02,VALID,0,VALID,87.6177,VALID,0,VALID,24.638,VALID,20,VALID,1.29922,
2010-02-12, 02:19:04,VALID,1005.03,VALID,0,VALID,87.7169,VALID,0,VALID,24.6574,VALID,27,VALID,1.03477,
2010-02-12, 02:20:04,VALID,1005.01,VALID,0,VALID,87.5261,VALID,0,VALID,24.6361,VALID,353,VALID,0.614844,
2010-02-12, 02:21:04,VALID,1005.02,VALID,0,VALID,87.5338,VALID,0,VALID,24.599,VALID,16,VALID,0.706641,
2010-02-12, 02:22:04,VALID,1005.01,VALID,0,VALID,87.9686,VALID,0,VALID,24.5582,VALID,6,VALID,1.0043,
2010-02-12, 02:23:04,VALID,1005.03,VALID,0,VALID,87.7779,VALID,0,VALID,24.5796,VALID,38,VALID,0.636719,
2010-02-12, 02:24:04,VALID,1005.04,VALID,0,VALID,87.8847,VALID,0,VALID,24.5212,VALID,22,VALID,1.13164,
2010-02-12, 02:25:04,VALID,1005.05,VALID,0,VALID,88.1593,VALID,0,VALID,24.5017,VALID,22,VALID,0.622656,
2010-02-12, 02:26:04,VALID,1005.02,VALID,0,VALID,88.3348,VALID,0,VALID,24.5017,VALID,28,VALID,1.45781,
2010-02-12, 02:27:04,VALID,1005.05,VALID,0,VALID,88.0831,VALID,0,VALID,24.4785,VALID,359,VALID,0.746484,
2010-02-12, 02:28:04,VALID,1005.03,VALID,0,VALID,88.3424,VALID,0,VALID,24.5388,VALID,12,VALID,0.889453,
2010-02-12, 02:29:04,VALID,1005.03,VALID,0,VALID,88.2585,VALID,0,VALID,24.5388,VALID,12,VALID,0.76875,
2010-02-12, 02:30:04,VALID,1005.02,VALID,0,VALID,88.1212,VALID,0,VALID,24.5601,VALID,17,VALID,1.22969,
2010-02-12, 02:31:04,VALID,1005.05,VALID,0,VALID,88.228,VALID,0,VALID,24.5796,VALID,21,VALID,1.08984,
2010-02-12, 02:32:04,VALID,1005.05,VALID,0,VALID,88.1212,VALID,0,VALID,24.5796,VALID,27,VALID,0.933984,
2010-02-12, 02:33:04,VALID,1005.04,VALID,0,VALID,87.7626,VALID,0,VALID,24.5388,VALID,30,VALID,0.838672,
2010-02-12, 02:34:04,VALID,1005.06,VALID,0,VALID,88.1822,VALID,0,VALID,24.5601,VALID,23,VALID,1.03867,
2010-02-12, 02:35:04,VALID,1005.07,VALID,0,VALID,88.1288,VALID,0,VALID,24.5601,VALID,31,VALID,0.452344,
2010-02-12, 02:36:04,VALID,1005.09,VALID,0,VALID,87.8313,VALID,0,VALID,24.422,VALID,62,VALID,0.396484,
2010-02-12, 02:37:04,VALID,1005.08,VALID,0,VALID,88.2433,VALID,0,VALID,24.383,VALID,25,VALID,0.626562,
2010-02-12, 02:38:04,VALID,1005.09,VALID,0,VALID,88.289,VALID,0,VALID,24.3246,VALID,24,VALID,0.0914062,
2010-02-12, 02:39:04,VALID,1005.11,VALID,0,VALID,88.2814,VALID,0,VALID,24.2486,VALID,24,VALID,0.00429688,
2010-02-12, 02:40:04,VALID,1005.11,VALID,0,VALID,88.495,VALID,0,VALID,24.1513,VALID,24,VALID,0.28125,
2010-02-12, 02:41:04,VALID,1005.08,VALID,0,VALID,88.8154,VALID,0,VALID,24.1142,VALID,24,VALID,0.322656,
2010-02-12, 02:42:04,VALID,1005.07,VALID,0,VALID,89.2198,VALID,0,VALID,24.0345,VALID,25,VALID,0.467969,
2010-02-12, 02:43:04,VALID,1005.09,VALID,0,VALID,89.2579,VALID,0,VALID,23.9566,VALID,24,VALID,0.722266,
2010-02-12, 02:44:04,VALID,1005.09,VALID,0,VALID,90.0284,VALID,0,VALID,23.9159,VALID,15,VALID,0.594141,
2010-02-12, 02:45:04,VALID,1005.08,VALID,0,VALID,90.2649,VALID,0.100563,VALID,23.9177,VALID,36,VALID,0.312891,
2010-02-12, 02:46:04,VALID,1005.09,VALID,0,VALID,90.509,VALID,0.100563,VALID,23.8575,VALID,17,VALID,0.683594,
2010-02-12, 02:47:04,VALID,1005.13,VALID,0,VALID,90.9515,VALID,0.100563,VALID,23.8946,VALID,48,VALID,0.651953,
2010-02-12, 02:48:04,VALID,1005.11,VALID,0,VALID,91.3635,VALID,0,VALID,23.9919,VALID,29,VALID,1.10938,
2010-02-12, 02:49:04,VALID,1005.09,VALID,0,VALID,90.7989,VALID,0.100563,VALID,24.0716,VALID,21,VALID,0.723437,
2010-02-12, 02:50:04,VALID,1005.08,VALID,0,VALID,90.8371,VALID,0,VALID,24.1087,VALID,32,VALID,0.978516,
2010-02-12, 02:51:04,VALID,1005.08,VALID,0,VALID,90.6006,VALID,0.100563,VALID,24.2662,VALID,22,VALID,1.48047,
2010-02-12, 02:52:04,VALID,1005.08,VALID,0,VALID,89.7233,VALID,0,VALID,24.3441,VALID,35,VALID,0.7625,
2010-02-12, 02:53:04,VALID,1005.01,VALID,0,VALID,89.296,VALID,0.100563,VALID,24.4006,VALID,12,VALID,1.26328,
2010-02-12, 02:54:04,VALID,1005.01,VALID,0,VALID,88.9527,VALID,0,VALID,24.4609,VALID,8,VALID,0.766016,
2010-02-12, 02:55:04,VALID,1004.99,VALID,0,VALID,88.7086,VALID,0,VALID,24.498,VALID,21,VALID,1.97266,
2010-02-12, 02:56:04,VALID,1004.97,VALID,0,VALID,87.9457,VALID,0,VALID,24.5388,VALID,20,VALID,1.56016,
2010-02-12, 02:57:04,VALID,1004.96,VALID,0,VALID,88.022,VALID,0,VALID,24.5777,VALID,19,VALID,1.08906,
2010-02-12, 02:58:04,VALID,1004.92,VALID,0,VALID,87.9076,VALID,0,VALID,24.5582,VALID,17,VALID,0.760938,
2010-02-12, 02:59:04,VALID,1004.93,VALID,0,VALID,88.0602,VALID,0,VALID,24.5406,VALID,9,VALID,0.800781,
2010-02-12, 03:00:04,VALID,1004.92,VALID,0,VALID,87.816,VALID,0.100563,VALID,24.459,VALID,10,VALID,0.876562,
2010-02-12, 03:01:04,VALID,1004.91,VALID,0,VALID,88.4492,VALID,0,VALID,24.4609,VALID,29,VALID,1.24023,
2010-02-12, 03:02:04,VALID,1004.91,VALID,0,VALID,88.3119,VALID,0,VALID,24.4998,VALID,10,VALID,1.11953,
2010-02-12, 03:03:04,VALID,1004.91,VALID,0,VALID,88.0907,VALID,0,VALID,24.5582,VALID,9,VALID,1.19062,
2010-02-12, 03:04:04,VALID,1004.9,VALID,0,VALID,87.8466,VALID,0,VALID,24.5777,VALID,22,VALID,0.744922,
2010-02-12, 03:05:04,VALID,1004.88,VALID,0,VALID,87.7932,VALID,0,VALID,24.5777,VALID,30,VALID,0.66875,
2010-02-12, 03:06:04,VALID,1004.88,VALID,0,VALID,87.5872,VALID,0,VALID,24.5796,VALID,36,VALID,0.138281,
2010-02-12, 03:07:04,VALID,1004.9,VALID,0,VALID,87.7321,VALID,0.100563,VALID,24.5601,VALID,10,VALID,0.60625,
2010-02-12, 03:08:04,VALID,1004.89,VALID,0,VALID,87.694,VALID,0.100563,VALID,24.4414,VALID,10,VALID,0.298047,
2010-02-12, 03:09:04,VALID,1004.88,VALID,0,VALID,87.8466,VALID,0,VALID,24.3636,VALID,10,VALID,0.422266,
2010-02-12, 03:10:04,VALID,1004.87,VALID,0,VALID,88.4187,VALID,0,VALID,24.3441,VALID,6,VALID,0.552734,
2010-02-12, 03:11:04,VALID,1004.84,VALID,0,VALID,88.6247,VALID,0,VALID,24.3246,VALID,39,VALID,0.702344,
2010-02-12, 03:12:04,VALID,1004.84,VALID,0,VALID,88.556,VALID,0,VALID,24.3052,VALID,31,VALID,0.0328125,
2010-02-12, 03:13:04,VALID,1004.8,VALID,0,VALID,88.7162,VALID,0,VALID,24.2875,VALID,31,VALID,0.115625,
2010-02-12, 03:14:04,VALID,1004.78,VALID,0,VALID,88.762,VALID,0,VALID,24.2291,VALID,36,VALID,0.342578,
2010-02-12, 03:15:04,VALID,1004.82,VALID,0,VALID,88.7849,VALID,0,VALID,24.2291,VALID,39,VALID,0.187109,
2010-02-12, 03:16:04,VALID,1004.79,VALID,0,VALID,88.8841,VALID,0,VALID,24.1689,VALID,39,VALID,0.13125,
2010-02-12, 03:17:04,VALID,1004.8,VALID,0,VALID,88.8612,VALID,0,VALID,24.1707,VALID,61,VALID,0.282422,
2010-02-12, 03:18:04,VALID,1004.78,VALID,0,VALID,88.9299,VALID,0,VALID,24.0929,VALID,72,VALID,0.527344,
2010-02-12, 03:19:04,VALID,1004.78,VALID,0,VALID,88.8002,VALID,0,VALID,23.9955,VALID,16,VALID,0.348437,
2010-02-12, 03:20:04,VALID,1004.76,VALID,0,VALID,89.2274,VALID,0,VALID,23.8964,VALID,57,VALID,0.167187,
2010-02-12, 03:21:04,VALID,1004.75,VALID,0,VALID,89.6393,VALID,0,VALID,23.8593,VALID,57,VALID,0.158984,
2010-02-12, 03:22:04,VALID,1004.76,VALID,0,VALID,89.9826,VALID,0,VALID,23.8203,VALID,57,VALID,0.205078,
2010-02-12, 03:23:04,VALID,1004.74,VALID,0,VALID,90.6387,VALID,0,VALID,23.8593,VALID,45,VALID,0.685547,
2010-02-12, 03:24:04,VALID,1004.7,VALID,0,VALID,90.4251,VALID,0,VALID,23.8982,VALID,17,VALID,0.316406,
2010-02-12, 03:25:04,VALID,1004.67,VALID,0,VALID,90.1429,VALID,0,VALID,23.8964,VALID,12,VALID,0.204297,
2010-02-12, 03:26:04,VALID,1004.69,VALID,0,VALID,90.0437,VALID,0,VALID,23.9195,VALID,12,VALID,0.0703125,
2010-02-12, 03:27:04,VALID,1004.66,VALID,0,VALID,90.1429,VALID,0,VALID,23.8982,VALID,12,VALID,0.324219,
2010-02-12, 03:28:04,VALID,1004.64,VALID,0,VALID,90.2115,VALID,0,VALID,23.9177,VALID,12,VALID,0.260547,
2010-02-12, 03:29:04,VALID,1004.64,VALID,0,VALID,90.0437,VALID,0,VALID,23.9566,VALID,41,VALID,0.471094,
2010-02-12, 03:30:04,VALID,1004.64,VALID,0,VALID,90.0055,VALID,0,VALID,23.9955,VALID,66,VALID,0.663281,
2010-02-12, 03:31:04,VALID,1004.66,VALID,0,VALID,89.7538,VALID,0,VALID,23.9742,VALID,64,VALID,0.133984,
2010-02-12, 03:32:04,VALID,1004.65,VALID,0,VALID,89.7385,VALID,0,VALID,24.0132,VALID,64,VALID,0.428906,
2010-02-12, 03:33:04,VALID,1004.68,VALID,0,VALID,89.2655,VALID,0,VALID,24.0363,VALID,49,VALID,0.517578,
2010-02-12, 03:34:04,VALID,1004.7,VALID,0,VALID,89.3647,VALID,0,VALID,23.9761,VALID,40,VALID,0.435937,
2010-02-12, 03:35:04,VALID,1004.7,VALID,0,VALID,89.6546,VALID,0,VALID,24.0363,VALID,93,VALID,0.738281,
2010-02-12, 03:36:04,VALID,1004.67,VALID,0,VALID,89.502,VALID,0,VALID,24.1123,VALID,73,VALID,0.412109,
2010-02-12, 03:37:04,VALID,1004.67,VALID,0,VALID,89.2121,VALID,0,VALID,24.13,VALID,65,VALID,0.130469,
2010-02-12, 03:38:04,VALID,1004.69,VALID,0,VALID,88.9604,VALID,0,VALID,24.1318,VALID,55,VALID,0.0695312,
2010-02-12, 03:39:04,VALID,1004.71,VALID,0,VALID,88.8612,VALID,0,VALID,24.1123,VALID,59,VALID,0,
2010-02-12, 03:40:04,VALID,1004.74,VALID,0,VALID,88.8078,VALID,0,VALID,24.0734,VALID,28,VALID,0.603125,
2010-02-12, 03:41:04,VALID,1004.74,VALID,0,VALID,88.6552,VALID,0,VALID,24.0539,VALID,30,VALID,0.644531,
2010-02-12, 03:42:04,VALID,1004.76,VALID,0,VALID,88.8765,VALID,0,VALID,24.015,VALID,17,VALID,0.896484,
2010-02-12, 03:43:04,VALID,1004.76,VALID,0,VALID,89.1282,VALID,0,VALID,24.0326,VALID,42,VALID,1.02031,
2010-02-12, 03:44:04,VALID,1004.77,VALID,0,VALID,88.9833,VALID,0,VALID,24.0892,VALID,354,VALID,0.696094,
2010-02-12, 03:45:04,VALID,1004.77,VALID,0,VALID,88.7239,VALID,0,VALID,24.1494,VALID,47,VALID,0.463281,
2010-02-12, 03:46:04,VALID,1004.8,VALID,0,VALID,88.4874,VALID,0,VALID,24.1689,VALID,42,VALID,0.539844,
2010-02-12, 03:47:04,VALID,1004.74,VALID,0,VALID,88.4798,VALID,0,VALID,24.13,VALID,42,VALID,0.416406,